CZ-4 DEB, 26159

Orbit data source: Space-Track

CZ-4 DEB, 26159 is space debris in SSO originally from a launch on Thu, 14 Oct 1999 UTC launched from the Taiyaun Space Center, China (TSC). Debris objects in space refer to the collection of defunct objects orbiting the Earth. Examples of debris include non-operational satellites, rocket bodies, and fragments generated from explosions, collisions, or faulty payload assembly.

Loading next visibility...
Identifier
26159, 1999-057AV
Orbit
SSO
Country
Flag of CNCN / PRC
Related business
Manufacturer
Unknown
Mission
Spacecraft
Bus & Motor
Unknown
Mass
Unknown
Launch date (UTC)
1999-10-14 (26 years ago)
Launch vehicle
Unknown
Launch site
Taiyaun Space Center, China (TSC)
Object type
Payload
Rocket body
Debris
Shape & HBR
Unknown shape, 0.1 m
Radar Cross Section
Medium (>0.1 m² and <1 m²)

Expand to show TLE details & history
Last TLE update: 7 hours ago

TLE from 7 hours ago
0 CZ-4 DEB
1 26159U 99057AV  26093.87147258  .00002102  00000-0  95084-3 0  9999
2 26159  99.3654  62.2046 0292686 203.4201 213.4113 14.02911290317607
Epoch: 2026-04-03T20:54Z
TLE epoch observation values (Epoch: 2026-04-03T20:54:55.230Z)
Latitude
54.05922°
Longitude
-96.80639°
Altitude
1,071.833 km
Speed
7.23 km/s
True Right ascension
03h 16m 29s
True Declination
53° 54' 09"
Sunlit
Object was in daylight at epoch
Visualization orbit readout
Latitude
Unknown
Longitude
Unknown
Altitude
Unknown
Speed
Unknown
Apparent Right ascension
Unknown
Apparent Declination
Unknown
Sunlit
N/A
Visualization observer readout
Local Sidereal Time
09:53:05
Azimuth
Unknown
Elevation
Unknown
Doppler factor
Unknown
Orbital elements
Apogee altitude
1,093.405 km
Perigee altitude
668.478 km
Semi-major axis
7,259.078 km
Eccentricity
0.02927
Inclination
99.3654°
RAAN
62.2046°
Arg. of periapsis
203.4201°
True anomaly
211.61955°
Mean anomaly
213.4113°
Eccentric anomaly
212.51002°
Mean motion
3.5093 °/min
Orbital period
102.58 mins
BSTAR
0.00095084
Loading maneuver chart data...
Computing Atmospheric mass density...
Loading historical data...
Loading historical data...
Loading historical data...
Loading historical data...
Loading historical data...
Loading historical data...
Loading historical data...

Documentation

Showing up to 5 results
|